When you browse on this site, cookies collect data to enhance your experience and personalize the content and advertising you see.
Visit our Privacy Policy to learn more. By continuing to use the site, you agree to this use of cookies and data.
  • In Austria
  • List of Countries
  • For 7 days
  • Water Temperature
  • Satellite Maps
  • Weather Map
  • News
  • Weather Widgets
  • user-avatar
    Login

    Hourly Weather Santarem

    Today, 21 May, Tuesday

    Time Temperature Precipitation Wind Pressure Humidity
    00:00 +13°C° 0 mm 1 mps 759 mmHg 97%
    01:00 +13°C° 0 mm 1 mps 759 mmHg 97%
    02:00 +13°C° 0 mm 1 mps 759 mmHg 97%
    03:00 +13°C° 0 mm 0 mps 759 mmHg 96%
    04:00 +13°C° 0 mm 0 mps 759 mmHg 95%
    05:00 +15°C° 0 mm 0 mps 759 mmHg 94%
    06:00 +18°C° 0 mm 1 mps 759 mmHg 86%
    07:00 +20°C° 0 mm 1 mps 759 mmHg 78%
    08:00 +21°C° 0 mm 1 mps 759 mmHg 70%
    09:00 +23°C° 0 mm 1 mps 759 mmHg 61%
    10:00 +25°C° 0 mm 2 mps 759 mmHg 53%
    11:00 +27°C° 0 mm 2 mps 759 mmHg 45%
    12:00 +26°C° 0 mm 2 mps 759 mmHg 45%
    13:00 +26°C° 0 mm 3 mps 759 mmHg 45%
    14:00 +26°C° 0 mm 3 mps 759 mmHg 46%
    15:00 +25°C° 0 mm 4 mps 759 mmHg 48%
    16:00 +25°C° 0 mm 4 mps 759 mmHg 51%
    17:00 +23°C° 0 mm 5 mps 759 mmHg 54%
    18:00 +21°C° 0 mm 4 mps 759 mmHg 64%
    19:00 +18°C° 0 mm 3 mps 759 mmHg 75%
    20:00 +16°C° 0 mm 3 mps 760 mmHg 85%
    21:00 +16°C° 0 mm 2 mps 760 mmHg 88%
    22:00 +15°C° 0 mm 2 mps 760 mmHg 91%
    23:00 +14°C° 0 mm 2 mps 760 mmHg 94%

    Tomorrow, 22 May, Wednesday

    Time Temperature Precipitation Wind Pressure Humidity
    00:00 +14°C° 0 mm 2 mps 760 mmHg 94%
    01:00 +14°C° 0 mm 2 mps 760 mmHg 94%
    02:00 +14°C° 0 mm 2 mps 760 mmHg 94%
    03:00 +14°C° 0 mm 1 mps 760 mmHg 94%
    04:00 +14°C° 0 mm 1 mps 760 mmHg 93%
    05:00 +14°C° 0 mm 1 mps 760 mmHg 92%
    06:00 +16°C° 0 mm 2 mps 760 mmHg 79%
    07:00 +19°C° 0 mm 2 mps 760 mmHg 67%
    08:00 +23°C° 0 mm 2 mps 761 mmHg 54%
    09:00 +25°C° 0 mm 2 mps 761 mmHg 48%
    10:00 +27°C° 0 mm 2 mps 761 mmHg 43%
    11:00 +29°C° 0 mm 2 mps 761 mmHg 37%
    12:00 +28°C° 0 mm 3 mps 760 mmHg 38%
    13:00 +28°C° 0 mm 4 mps 760 mmHg 38%
    14:00 +28°C° 0 mm 6 mps 760 mmHg 39%
    15:00 +27°C° 0 mm 6 mps 760 mmHg 43%
    16:00 +24°C° 0 mm 6 mps 760 mmHg 48%
    17:00 +23°C° 0 mm 6 mps 760 mmHg 52%
    18:00 +20°C° 0 mm 5 mps 761 mmHg 61%
    19:00 +18°C° 0 mm 4 mps 761 mmHg 71%
    20:00 +16°C° 0 mm 3 mps 762 mmHg 80%
    21:00 +14°C° 0 mm 3 mps 762 mmHg 83%
    22:00 +14°C° 0 mm 3 mps 762 mmHg 86%
    23:00 +13°C° 0 mm 3 mps 762 mmHg 89%

    Day after tomorrow, 23 May, Thursday

    Time Temperature Precipitation Wind Pressure Humidity
    00:00 +13°C° 0 mm 3 mps 762 mmHg 91%
    01:00 +13°C° 0 mm 3 mps 761 mmHg 92%
    02:00 +13°C° 0 mm 3 mps 761 mmHg 93%
    03:00 +13°C° 0 mm 3 mps 761 mmHg 93%
    04:00 +13°C° 0 mm 3 mps 761 mmHg 93%
    05:00 +13°C° 0 mm 3 mps 761 mmHg 94%
    06:00 +17°C° 0 mm 3 mps 761 mmHg 79%
    07:00 +19°C° 0 mm 4 mps 762 mmHg 64%
    08:00 +22°C° 0 mm 5 mps 762 mmHg 50%
    09:00 +25°C° 0 mm 5 mps 762 mmHg 46%
    10:00 +26°C° 0 mm 5 mps 762 mmHg 42%
    11:00 +28°C° 0 mm 6 mps 762 mmHg 39%
    12:00 +28°C° 0 mm 6 mps 761 mmHg 42%
    13:00 +28°C° 0 mm 6 mps 761 mmHg 46%
    14:00 +27°C° 0 mm 7 mps 761 mmHg 49%
    15:00 +26°C° 0 mm 7 mps 761 mmHg 53%
    16:00 +23°C° 0 mm 7 mps 761 mmHg 56%
    17:00 +21°C° 0 mm 7 mps 760 mmHg 59%
    18:00 +20°C° 0 mm 6 mps 761 mmHg 61%
    19:00 +17°C° 0 mm 6 mps 761 mmHg 63%
    20:00 +15°C° 0 mm 6 mps 762 mmHg 64%
    21:00 +15°C° 0 mm 6 mps 762 mmHg 66%
    22:00 +15°C° 0 mm 6 mps 761 mmHg 68%
    23:00 +15°C° 0 mm 6 mps 761 mmHg 70%

    24 May, Friday

    Time Temperature Precipitation Wind Pressure Humidity
    00:00 +14°C° 0 mm 5 mps 761 mmHg 72%
    01:00 +14°C° 0 mm 5 mps 761 mmHg 73%
    02:00 +14°C° 0 mm 5 mps 760 mmHg 74%
    03:00 +14°C° 0 mm 4 mps 760 mmHg 74%
    04:00 +14°C° 0 mm 4 mps 760 mmHg 74%
    05:00 +14°C° 0 mm 4 mps 759 mmHg 74%
    06:00 +16°C° 0 mm 5 mps 760 mmHg 63%
    07:00 +19°C° 0 mm 5 mps 760 mmHg 53%
    08:00 +22°C° 0 mm 6 mps 760 mmHg 42%
    09:00 +24°C° 0 mm 6 mps 760 mmHg 37%
    10:00 +26°C° 0 mm 6 mps 759 mmHg 32%
    11:00 +28°C° 0 mm 6 mps 759 mmHg 27%
    12:00 +29°C° 0 mm 6 mps 759 mmHg 27%
    13:00 +29°C° 0 mm 7 mps 758 mmHg 27%
    14:00 +30°C° 0 mm 7 mps 758 mmHg 27%
    15:00 +28°C° 0 mm 7 mps 758 mmHg 31%
    16:00 +27°C° 0 mm 7 mps 757 mmHg 35%
    17:00 +24°C° 0 mm 8 mps 757 mmHg 39%
    18:00 +22°C° 0 mm 7 mps 758 mmHg 46%
    19:00 +20°C° 0 mm 6 mps 758 mmHg 52%
    20:00 +17°C° 0 mm 5 mps 758 mmHg 59%
    21:00 +17°C° 0 mm 4 mps 759 mmHg 62%
    22:00 +17°C° 0 mm 4 mps 759 mmHg 66%
    23:00 +16°C° 0 mm 3 mps 759 mmHg 69%

    25 May, Saturday

    Time Temperature Precipitation Wind Pressure Humidity
    00:00 +16°C° 0 mm 3 mps 759 mmHg 66%
    01:00 +16°C° 0 mm 3 mps 759 mmHg 62%
    02:00 +16°C° 0 mm 3 mps 758 mmHg 58%
    03:00 +16°C° 0 mm 3 mps 759 mmHg 59%
    04:00 +16°C° 0 mm 3 mps 759 mmHg 59%
    05:00 +16°C° 0 mm 3 mps 759 mmHg 59%
    06:00 +19°C° 0 mm 3 mps 759 mmHg 52%
    07:00 +21°C° 0 mm 4 mps 760 mmHg 45%
    08:00 +25°C° 0 mm 4 mps 760 mmHg 38%
    09:00 +26°C° 0 mm 4 mps 760 mmHg 34%
    10:00 +28°C° 0 mm 4 mps 759 mmHg 30%
    11:00 +30°C° 0 mm 4 mps 759 mmHg 25%
    12:00 +30°C° 0 mm 5 mps 759 mmHg 25%
    13:00 +30°C° 0 mm 5 mps 758 mmHg 25%
    14:00 +32°C° 0 mm 6 mps 758 mmHg 25%
    15:00 +30°C° 0 mm 6 mps 758 mmHg 27%
    16:00 +29°C° 0 mm 5 mps 758 mmHg 30%
    17:00 +28°C° 0 mm 5 mps 758 mmHg 32%
    18:00 +26°C° 0 mm 5 mps 758 mmHg 37%
    19:00 +23°C° 0 mm 4 mps 759 mmHg 42%
    20:00 +21°C° 0 mm 3 mps 760 mmHg 48%
    21:00 +20°C° 0 mm 3 mps 760 mmHg 50%
    22:00 +19°C° 0 mm 3 mps 760 mmHg 53%
    23:00 +18°C° 0 mm 2 mps 760 mmHg 56%

    26 May, Sunday

    Time Temperature Precipitation Wind Pressure Humidity
    00:00 +18°C° 0 mm 3 mps 760 mmHg 56%
    01:00 +17°C° 0 mm 3 mps 760 mmHg 56%
    02:00 +17°C° 0 mm 3 mps 760 mmHg 56%
    03:00 +17°C° 0 mm 3 mps 761 mmHg 57%
    04:00 +16°C° 0 mm 3 mps 761 mmHg 59%
    05:00 +16°C° 0 mm 3 mps 761 mmHg 60%
    06:00 +19°C° 0 mm 3 mps 761 mmHg 53%
    07:00 +21°C° 0 mm 3 mps 761 mmHg 46%
    08:00 +25°C° 0 mm 3 mps 761 mmHg 40%
    09:00 +27°C° 0 mm 3 mps 761 mmHg 35%
    10:00 +29°C° 0 mm 3 mps 761 mmHg 31%
    11:00 +30°C° 0 mm 3 mps 761 mmHg 27%
    12:00 +31°C° 0 mm 3 mps 761 mmHg 26%
    13:00 +33°C° 0 mm 3 mps 760 mmHg 25%
    14:00 +33°C° 0 mm 3 mps 760 mmHg 23%
    15:00 +32°C° 0 mm 4 mps 759 mmHg 27%
    16:00 +30°C° 0 mm 5 mps 759 mmHg 31%
    17:00 +28°C° 0 mm 6 mps 759 mmHg 35%
    18:00 +26°C° 0 mm 5 mps 759 mmHg 41%
    19:00 +23°C° 0 mm 4 mps 759 mmHg 46%
    20:00 +20°C° 0 mm 4 mps 760 mmHg 52%
    21:00 +20°C° 0 mm 3 mps 760 mmHg 55%
    22:00 +19°C° 0 mm 3 mps 760 mmHg 58%
    23:00 +18°C° 0 mm 2 mps 760 mmHg 61%
    Show more